This demonstration page uses our WeatherBlox Daily Observations layout. Learn more.

Left ArrowRight Arrow

Hourly Observations for November 5, 2016

Temp ( °F °C ) Dew Point ( °F °C ) Humidity (%) Winds ( mph kmh ) Pressure ( in mb ) Visibility ( mi km ) Precip ( " mm )
12:53 am 00:53 Clear 51 10.6 43 6.1 74 74 Calm 30.23 1024 10 16 0.00 0.00
1:53 am 01:53 Clear 50 10 43 6.1 77 77 ENE 5 7 30.24 1024 10 16 0.00 0.00
2:53 am 02:53 Clear 48 8.9 43 6.1 83 83 Calm 30.24 1024 10 16 0.00 0.00
3:53 am 03:53 Clear 48 8.9 43 6.1 83 83 NE 3 6 30.24 1024 10 16 0.00 0.00
4:53 am 04:53 Clear 47 8.3 43 6.1 86 86 NE 3 6 30.25 1024 10 16 0.00 0.00
5:53 am 05:53 Clear 47 8.3 42 5.6 83 83 Calm 30.27 1025 10 16 0.00 0.00
6:53 am 06:53 Clear 46 7.8 43 6.1 89 89 Calm 30.29 1026 10 16 0.00 0.00
7:53 am 07:53 Clear 45 7.2 41 5 86 86 Calm 30.32 1027 10 16 0.00 0.00
8:53 am 08:53 Sunny 50 10 44 6.7 80 80 NNE 5 7 30.33 1027 10 16 0.00 0.00
9:53 am 09:53 Sunny 57 13.9 42 5.6 58 58 ENE 6 9 30.35 1028 10 16 0.00 0.00
10:53 am 10:53 Sunny 61 16.1 41 5 48 48 E 6 9 30.36 1028 10 16 0.00 0.00
11:53 am 11:53 Sunny 64 17.8 40 4.4 41 41 ESE 6 9 30.36 1028 10 16 0.00 0.00
12:53 pm 12:53 Sunny 67 19.4 40 4.4 37 37 ENE 7 11 30.34 1028 10 16 0.00 0.00
1:53 pm 13:53 Sunny 69 20.6 40 4.4 35 35 undefined N/A 30.30 1026 10 16 0.00 0.00
2:53 pm 14:53 Sunny 70 21.1 40 4.4 34 34 N 5 7 30.27 1025 10 16 0.00 0.00
3:53 pm 15:53 Sunny 72 22.2 41 5 33 33 VRB 3 6 30.26 1025 10 16 0.00 0.00
4:53 pm 16:53 Sunny 71 21.7 40 4.4 32 32 NNE 3 6 30.25 1025 10 16 0.00 0.00
5:53 pm 17:53 Sunny 69 20.6 40 4.4 35 35 Calm 30.25 1025 10 16 0.00 0.00
6:53 pm 18:53 Clear 62 16.7 44 6.7 52 52 Calm 30.26 1025 10 16 0.00 0.00
7:53 pm 19:53 Clear 57 13.9 46 7.8 67 67 Calm 30.27 1025 10 16 0.00 0.00
8:53 pm 20:53 Clear 55 12.8 46 7.8 72 72 Calm 30.28 1025 10 16 0.00 0.00
9:53 pm 21:53 Clear 52 11.1 46 7.8 80 80 Calm 30.29 1026 10 16 0.00 0.00
10:53 pm 22:53 Clear 51 10.6 45 7.2 80 80 Calm 30.30 1026 10 16 0.00 0.00
11:53 pm 23:53 Clear 50 10 45 7.2 83 83 Calm 30.30 1026 10 16 0.00 0.00

Powered by AerisWeather